Location: Bonavicina
(45.2500°N, 11.1667°E)
Time: 14:25:55
(UTC+00:00)

Daily predictions for brighter satellites

Satellite Brightness Start Highest point End
(mag) Time Altitude Azimuth Time Altitude Azimuth Time Altitude Azimuth
Meteor 1-22 Rocket 4.3 18:03:43 10° SSE 18:08:47 49° E 18:13:52 10° NNE
STARLINK-1216 3.6 18:05:29 10° SW 18:09:29 67° SE 18:13:32 10° ENE
ARGOS Delta rocket 4.3 18:04:43 10° SE 18:09:37 49° ENE 18:14:46 10° N
ATLAS CENTAUR R/B 4.4 18:09:26 10° NW 18:10:32 11° NNW 18:11:36 10° NNW
STARLINK-1100 3.7 18:06:43 10° NW 18:10:47 64° NNE 18:14:49 10° ESE
Cosmos 1674 2.6 18:07:05 10° N 18:10:51 89° E 18:14:34 10° S
Cosmos 1110 Rocket 4.0 18:05:41 10° NNW 18:10:57 70° ENE 18:16:08 10° SSE
Cosmos 1553 Rocket 4.0 18:05:30 10° S 18:11:34 89° WNW 18:17:42 10° N
Cosmos 2219 Rocket 4.1 18:06:50 10° WSW 18:11:57 34° NW 18:17:04 10° N
NOSS 2-1 (E) 4.3 18:08:50 10° WSW 18:12:04 43° NW 18:15:41 10° NNE
STARLINK-1237 3.5 18:10:13 10° SW 18:14:16 73° SE 18:18:18 10° ENE
STARLINK-1083 3.7 18:11:28 10° NW 18:15:32 68° NNE 18:19:35 10° ESE
Cosmos 1939 Rocket 4.1 18:13:10 10° S 18:17:00 46° W 18:20:48 10° NNW
STARLINK-1209 3.8 18:14:19 10° W 18:17:10 45° NNW 18:20:00 10° NE
KORONAS-FOTON 3.9 18:14:01 10° N 18:17:52 83° W 18:21:39 10° S
Cosmos 1943 Rocket 3.4 18:13:55 10° N 18:18:27 25° NE 18:22:59 10° ESE
STARLINK-1202 3.5 18:14:56 10° SW 18:18:59 78° SE 18:23:02 10° ENE
STARLINK-1228 3.8 18:16:33 10° W 18:19:19 42° NNW 18:22:06 10° NE
ATLAS 2AS CENTAUR R/B 4.5 18:13:44 10° NNW 18:19:41 23° NNE 18:25:21 10° ENE
STARLINK-1125 3.6 18:16:02 10° NW 18:20:07 72° NNE 18:24:07 10° ESE
SL-14 R/B 3.7 18:18:04 10° N 18:21:57 42° ENE 18:25:47 10° SSE
Cosmos 1980 4.3 18:17:27 10° SW 18:23:06 64° WNW 18:28:45 10° NNE
SL-8 R/B 4.1 18:19:52 10° W 18:24:35 58° N 18:29:19 10° ENE
STARLINK-1109 3.6 18:20:46 10° NW 18:24:52 77° NNE 18:28:41 12° ESE
ERBS 4.5 18:23:06 10° W 18:25:58 25° NNW 18:28:49 10° NNE
STARLINK-1246 3.6 18:21:57 10° SW 18:26:03 87° SSE 18:30:10 10° ENE
Cosmos 2315 Rocket 4.3 18:21:51 10° SSE 18:27:48 46° E 18:33:49 10° NNE
Cosmos 1766 3.5 18:24:13 10° SSW 18:28:12 75° W 18:32:12 10° N
STARLINK-1091 3.6 18:25:35 10° WNW 18:29:41 82° NNE 18:33:19 13° ESE
Orbus 7S? 4.1 18:27:36 10° WNW 18:30:13 29° SW 18:32:23 10° SSE
STARLINK-67 4.5 18:29:22 10° W 18:31:36 25° NNW 18:33:50 10° NE
ADEOS Rocket 3.8 18:25:12 10° N 18:31:54 61° WNW 18:37:54 10° SSW
STARLINK-1201 3.8 18:28:44 10° WSW 18:31:56 51° NNW 18:35:08 10° NE
STARLINK-1066 3.3 18:28:52 10° WNW 18:31:59 59° SW 18:34:49 12° SE
USA 234 3.6 18:25:49 10° ENE 18:32:03 45° SE 18:38:14 10° SSW
STARLINK-1081 3.3 18:29:21 10° WNW 18:32:26 58° SW 18:35:12 12° SE
Meteor 2-8 Rocket 4.4 18:26:44 10° S 18:32:51 76° E 18:39:00 10° NNE
STARLINK-1070 3.3 18:29:48 10° WNW 18:32:53 57° SW 18:35:38 12° SE
STARLINK-1224 3.6 18:29:12 10° WSW 18:33:16 84° NW 18:37:22 10° ENE
STARLINK-1069 3.3 18:30:14 10° WNW 18:33:20 57° SW 18:36:06 12° SE
STARLINK-1085 3.4 18:30:40 10° WNW 18:33:47 57° SW 18:36:32 12° SE
STARLINK-1086 3.3 18:31:10 10° WNW 18:34:14 56° SW 18:36:56 13° SE
Cosmos 1626 2.2 18:30:50 10° N 18:34:28 55° ENE 18:38:06 10° SSE
H-2A R/B 2.1 18:29:19 10° SSE 18:34:34 68° ENE 18:39:44 10° N
STARLINK-1095 3.4 18:31:37 10° WNW 18:34:41 55° SW 18:37:22 13° SE
STARLINK-1203 3.7 18:30:56 10° WSW 18:34:54 77° NNW 18:38:54 10° NE
STARLINK-1077 3.4 18:32:04 10° WNW 18:35:08 55° SW 18:37:48 13° SE
STARLINK-1075 3.4 18:32:31 10° WNW 18:35:35 54° SW 18:38:14 13° SE
HJ-1C 4.1 18:32:27 10° S 18:35:44 56° W 18:39:04 10° NNW
STARLINK-1093 3.4 18:32:56 10° WNW 18:36:01 54° SW 18:38:42 13° SE
STARLINK-1074 3.4 18:33:23 10° WNW 18:36:29 53° SW 18:39:08 13° SE
STARLINK-1087 3.4 18:33:52 10° WNW 18:36:55 52° SW 18:39:31 13° SE
SL-16 R/B 2.2 18:31:25 10° S 18:36:59 62° ESE 18:42:34 10° NNE
STARLINK-1088 3.5 18:34:20 10° WNW 18:37:23 52° SW 18:39:58 13° SE
STARLINK-1115 3.5 18:34:45 10° WNW 18:37:50 52° SW 18:40:27 13° SE
STARLINK-1225 3.7 18:33:50 10° WSW 18:37:55 79° NNW 18:42:00 10° ENE
STARLINK-1076 3.5 18:35:12 10° WNW 18:38:17 51° SW 18:40:53 13° SE
STARLINK-1092 3.5 18:35:39 10° WNW 18:38:43 51° SW 18:41:18 14° SE
STARLINK-1080 3.5 18:36:08 10° WNW 18:39:10 50° SW 18:41:42 14° SE
SL-08 RB Rocket 4.1 18:35:00 10° SE 18:39:15 43° ENE 18:43:34 10° N
STARLINK-1090 3.5 18:36:36 10° WNW 18:39:37 49° SW 18:42:08 14° SE
STARLINK-1072 3.5 18:35:54 10° WNW 18:39:57 85° SSW 18:43:08 16° SE
STARLINK-1089 3.5 18:37:02 10° WNW 18:40:04 49° SW 18:42:33 14° SE
STARLINK-1107 3.6 18:37:30 10° WNW 18:40:31 48° SW 18:43:00 14° SE
Resurs 01 Rocket 3.0 18:38:54 15° ESE 18:41:08 21° ENE 18:44:27 10° NNE
STARLINK-1230 3.8 18:38:36 10° WSW 18:42:40 74° NNW 18:46:45 10° NE
STARLINK-1096 3.6 18:40:16 10° WNW 18:44:18 79° SW 18:47:19 17° SE
STARLINK-1144 4.5 18:41:09 10° NW 18:45:04 40° NNE 18:47:59 16° E
FREGAT/IRIS 2.2 18:42:36 10° SSE 18:45:19 81° ENE 18:48:03 10° N
STARLINK-1233 4.2 18:42:26 10° W 18:45:24 39° NNW 18:48:23 10° NE
STARLINK-1212 4.2 18:42:54 10° W 18:45:51 38° NNW 18:48:50 10° NE
STARLINK-1105 4.2 18:43:20 10° W 18:46:18 38° NNW 18:49:17 10° NE
STARLINK-1206 4.2 18:43:51 10° W 18:46:47 38° NNW 18:49:44 10° NE
STARLINK-1247 4.2 18:44:17 10° W 18:47:13 38° NNW 18:50:11 10° NE
STARLINK-1243 3.8 18:43:26 10° WSW 18:47:29 69° NNW 18:51:34 10° NE
STARLINK-1227 4.2 18:44:42 10° W 18:47:40 38° NNW 18:50:39 10° NE
STARLINK-1218 4.2 18:45:12 10° W 18:48:08 37° NNW 18:51:05 10° NE
Abrixas rocket 2.9 18:45:41 10° SSW 18:48:18 28° SSE 18:49:06 24° ESE
Cosmos 1302 Rocket 4.0 18:43:04 10° NNW 18:48:21 70° ENE 18:53:36 10° SSE
STARLINK-1226 4.3 18:45:39 10° W 18:48:35 37° NNW 18:51:32 10° NE
STARLINK-1254 4.3 18:46:04 10° W 18:49:02 37° NNW 18:51:59 10° NE
STARLINK-1079 3.6 18:45:19 10° WNW 18:49:21 73° SW 18:52:10 19° SE
STARLINK-1215 4.3 18:46:34 10° W 18:49:30 37° NNW 18:52:26 10° NE
STARLINK-1231 4.3 18:47:00 10° W 18:49:56 36° NNW 18:52:52 10° NE
Cosmos 1953 3.3 18:47:33 15° SE 18:49:57 26° E 18:53:18 10° NNE
STARLINK-1103 4.4 18:46:07 10° NW 18:50:04 41° NNE 18:52:45 18° E
STARLINK-1232 4.3 18:47:55 10° W 18:50:51 36° NNW 18:53:46 10° NE
Cosmos 304 Rocket 4.4 18:46:16 10° NNW 18:50:58 56° WSW 18:55:38 10° S
STARLINK-1217 4.3 18:48:23 10° W 18:51:18 36° NNW 18:54:14 10° NE
Cosmos 1709 Rocket 3.9 18:45:11 10° N 18:51:26 81° E 18:57:34 10° S
STARLINK-1208 4.3 18:48:48 10° W 18:51:44 36° NNW 18:54:41 10° NE
STARLINK-1229 4.3 18:49:17 10° W 18:52:12 35° NNW 18:55:07 10° NE
STARLINK-1236 3.9 18:48:13 10° WSW 18:52:16 65° NNW 18:56:21 10° NE
STARLINK-1271 4.3 18:49:44 10° W 18:52:39 35° NNW 18:55:34 10° NE
STARLINK-1270 4.4 18:50:13 10° W 18:53:07 35° NNW 18:56:02 10° NE
STARLINK-1154 4.4 18:50:40 10° W 18:53:34 35° NNW 18:56:29 10° NE
STARLINK-1116 3.7 18:49:44 10° WNW 18:53:46 68° SW 18:56:26 20° SE
MONITOR-E 3.8 18:51:12 10° S 18:53:50 80° WSW 18:56:29 10° NNW
Cosmos 1269 Rocket 4.2 18:48:34 10° SSW 18:53:51 80° WNW 18:59:12 10° NNE
STARLINK-1197 4.4 18:51:34 10° W 18:54:28 34° NNW 18:57:23 10° NE
STARLINK-1189 4.4 18:52:02 10° W 18:54:56 34° NNW 18:57:50 10° NE
STARLINK-1101 4.3 18:51:06 10° NW 18:55:05 43° NNE 18:57:32 20° E
STARLINK-1188 4.4 18:52:56 10° W 18:55:50 34° NNW 18:58:44 10° NE
STARLINK-1198 4.4 18:52:57 10° W 18:55:50 34° NNW 18:58:44 10° NE
STARLINK-1199 4.5 18:54:54 10° W 18:57:47 33° NNW 19:00:43 10° NE
SL-24 R/B 4.3 18:53:32 10° NNE 18:57:53 43° E 19:01:42 10° S
STARLINK-1191 4.5 18:55:21 10° W 18:58:14 33° NNW 19:01:09 10° NE
STARLINK-1210 4.5 18:55:48 10° W 18:58:42 33° NNW 19:01:36 10° NE
STARLINK-1221 4.5 18:56:15 10° W 18:59:09 33° NNW 19:02:01 10° NE
STARLINK-1219 4.5 18:56:44 10° W 18:59:37 33° NNW 19:02:29 10° NE
STARLINK-1222 4.5 18:57:11 10° W 19:00:04 32° NNW 19:02:54 10° NE
STARLINK-1102 4.2 18:56:03 10° NW 19:00:04 46° NNE 19:02:19 23° E
ISS -2.6 18:57:58 10° NW 19:01:06 35° NNE 19:02:41 22° ENE
Cosmos 2251 Rocket 4.1 18:56:41 10° SSE 19:01:30 36° ESE 19:06:22 10° NE
Cosmos 1455 Rocket 4.0 18:57:19 10° SSW 19:01:31 50° WNW 19:05:47 10° N
STARLINK-1269 4.2 18:58:06 10° WSW 19:02:08 57° NNW 19:06:10 10° NE
Cosmos 2297 3.9 18:57:08 10° NNW 19:02:48 75° WSW 19:08:28 10° SSE
STARLINK-1094 3.9 18:59:01 10° WNW 19:03:01 58° SW 19:05:21 23° SE
BREEZE-M DEB (TANK) 4.4 18:55:49 10° WNW 19:03:20 52° N 19:05:20 21° ENE
Cosmos 2074 Rocket 4.4 18:58:20 10° N 19:04:16 43° ENE 19:08:16 20° SE
Cosmos 2084 Rocket 4.1 19:00:40 10° NNW 19:04:56 43° NE 19:06:58 26° E
STARLINK-1111 4.2 19:01:03 10° NW 19:05:05 48° NNE 19:07:06 26° E
Cosmos 2237 Rocket 4.0 19:01:43 10° WSW 19:06:47 33° NW 19:11:53 10° N
STARLINK-1200 4.3 19:02:57 10° WSW 19:06:57 54° NNW 19:10:50 11° NE
STARLINK-1117 4.0 19:03:53 10° WNW 19:07:50 53° SW 19:10:00 24° SSE
CZ-2C R/B 2.9 19:04:41 10° NNE 19:09:34 40° E 19:14:07 11° SSE
STARLINK-1073 4.1 19:06:01 10° NW 19:10:05 51° NNE 19:11:53 29° E
Cosmos 1626 Rocket 3.5 19:05:49 10° N 19:10:15 84° W 19:14:36 10° S
STARLINK-1192 4.4 19:07:44 10° WSW 19:11:44 51° NNW 19:15:24 12° NE
STARLINK-1078 4.2 19:08:20 10° WNW 19:12:16 49° SW 19:14:17 25° SSE
BREEZE-M DEB (TANK) 4.3 19:04:45 10° WNW 19:13:09 31° WSW 19:15:44 13° S
ARGOS 3.5 19:09:38 10° S 19:15:00 66° WSW 19:20:23 10° NNW
STARLINK-1121 4.0 19:10:59 10° NW 19:15:04 54° NNE 19:16:39 32° E
Cosmos 292 Rocket 4.0 19:11:55 10° NNW 19:16:36 52° ENE 19:18:32 32° ESE
STARLINK-1244 4.4 19:12:42 10° W 19:16:40 48° NNW 19:20:08 13° NE
STARLINK-1108 4.3 19:13:14 10° WNW 19:17:07 45° SW 19:18:58 26° SSE
Cosmos 1602 Rocket 3.5 19:13:46 10° N 19:18:16 89° W 19:21:45 16° S
IRIDIUM 104 4.2 19:14:26 10° N 19:19:40 69° E 19:23:42 17° SSE
STARLINK-1106 3.9 19:15:56 10° NW 19:20:02 57° NNE 19:21:25 37° E
STARLINK-1071 4.4 19:17:54 10° WNW 19:21:45 42° SW 19:23:26 27° S
USA 186 3.6 19:19:18 10° SSW 19:22:26 32° W 19:25:32 10° NNW
MOS 1 Rocket 3.6 19:18:48 10° NNE 19:23:58 57° E 19:29:17 10° S
STARLINK-1112 3.8 19:20:56 10° NW 19:25:03 61° NNE 19:26:14 41° E
MetOp-A 4.1 19:21:25 17° SSE 19:25:39 88° ENE 19:31:03 10° NNW
CZ-2C R/B 3.9 19:22:39 10° S 19:27:31 46° W 19:32:11 10° NNW
IRIDIUM 114 4.2 19:23:35 10° N 19:28:50 83° E 19:32:51 17° S
STARLINK-1128 3.7 19:25:55 10° NW 19:30:02 65° NNE 19:31:01 47° E
Cosmos 1470 3.8 19:27:24 10° SSW 19:31:08 46° WNW 19:34:54 10° N
Cosmos 1437 4.1 19:29:40 10° N 19:31:24 27° NNE 19:31:24 27° NNE
SPOT 3 Rocket 3.7 19:29:48 15° S 19:34:08 72° WSW 19:39:23 10° NNW
STARLINK-1113 3.6 19:30:53 10° NW 19:35:01 69° NNE 19:35:47 54° E
Cosmos 1825 Rocket 3.6 19:32:58 10° N 19:37:20 57° ENE 19:37:53 52° ESE
IRIDIUM 103 4.3 19:32:46 10° N 19:38:01 82° W 19:42:00 18° S
STARLINK-1119 3.5 19:35:51 10° NW 19:40:01 74° NNE 19:40:34 62° E
SJ-6B 4.5 19:36:48 10° SSW 19:40:30 34° W 19:44:17 10° NNW
Cosmos 2369 Rocket 2.1 19:35:32 10° NNW 19:41:16 74° ENE 19:43:14 42° SE
Cosmos 1726 2.0 19:42:57 74° ENE 19:42:57 74° ENE 19:46:33 10° NNE
STARLINK-1114 3.5 19:40:52 10° WNW 19:45:02 80° NNE 19:45:24 71° E
Aureole 2 Rocket 2.5 19:42:43 10° NNW 19:45:56 73° NNW 19:45:56 73° NNW
Cosmos 1758 Rocket 3.4 19:42:44 10° N 19:47:07 86° E 19:47:54 60° SSE
Cosmos 2263 4.2 19:41:42 10° NNW 19:47:17 61° ENE 19:48:36 48° ESE
NOSS 3-3 (A) 3.8 19:42:39 10° SSW 19:48:22 65° ESE 19:54:50 10° NE
NOSS 3-3 (C) 3.8 19:42:45 10° SSW 19:48:29 64° ESE 19:54:55 10° NE
STARLINK-1130 (DARKSAT) 3.4 19:45:50 10° WNW 19:50:00 85° NNE 19:50:10 81° E
Meteor 2-17 Rocket 4.5 19:46:15 10° N 19:52:19 58° ENE 19:53:46 47° SE
Terra 3.7 19:53:53 17° NE 19:53:53 17° NE 19:56:11 10° NNE
Cosmos 1953 Rocket 3.7 19:49:14 10° N 19:53:21 56° ENE 19:53:21 56° ENE
STARLINK-1084 3.5 19:50:48 10° WNW 19:54:55 88° W 19:54:55 88° W
Spot 2 Rocket 3.5 19:55:41 56° E 19:56:14 60° ENE 20:01:17 10° N
Cosmos 2184 Rocket 4.0 19:49:57 10° N 19:56:18 84° W 19:59:37 30° S
Cosmos 1606 Rocket 3.4 19:59:07 78° ENE 19:59:07 78° ENE 20:03:27 10° N
STARLINK-1098 3.6 19:55:47 10° WNW 19:59:43 78° W 19:59:43 78° W
SPOT 1/Viking Rocket 4.0 20:00:50 44° ENE 20:00:50 44° ENE 20:05:42 10° N
Cosmos 1943 Rocket 2.5 19:57:08 10° NNW 20:02:35 59° WSW 20:04:35 37° S
Cosmos 1943 3.0 20:01:03 35° S 20:03:28 69° ESE 20:09:08 10° NNE
STARLINK-1123 3.8 20:00:46 10° WNW 20:04:30 68° W 20:04:30 68° W
Meteor 2-10 4.3 20:00:44 13° SSW 20:05:28 72° WNW 20:11:02 10° N
SL-8 R/B 3.6 20:02:39 10° WNW 20:07:26 78° NNE 20:07:34 77° NE
STARLINK-1097 4.0 20:05:45 10° WNW 20:09:16 59° W 20:09:16 59° W
ATLAS 2AS CENTAUR R/B 3.2 20:05:05 10° NNW 20:12:34 52° NE 20:14:21 43° E
STARLINK-1099 4.3 20:10:45 10° WNW 20:14:04 52° W 20:14:04 52° W
USA 234 3.6 20:08:45 10° NE 20:15:13 64° NNW 20:21:40 10° WSW
USA 245 3.9 20:15:17 80° E 20:15:25 81° ENE 20:21:14 10° N
Resurs 01 Rocket 2.6 20:16:28 38° SW 20:17:21 42° W 20:21:34 10° NNW
Cosmos 2154 Rocket 3.9 20:11:01 10° N 20:17:25 90° W 20:19:00 55° S
SL-16 R/B 4.4 20:16:56 10° WSW 20:21:32 25° NW 20:26:09 10° N
Cosmos 2228 3.5 20:22:40 57° NW 20:22:40 57° NW 20:26:28 10° N
Cosmos 967 Rocket 4.5 20:17:12 10° SW 20:23:40 84° NW 20:30:12 10° NNE
Cosmos 962 Rocket 4.3 20:25:29 10° N 20:31:41 75° E 20:31:43 75° E
Nadezhda 1 Rocket 4.3 20:29:47 31° SSW 20:32:58 68° W 20:39:22 10° N
SL-8 Rocket 4.3 20:31:26 10° N 20:37:01 54° NE 20:37:01 54° NE
ISS -0.9 20:34:45 10° WNW 20:35:39 17° WNW 20:35:39 17° WNW
Cosmos 2058 Rocket 4.4 20:42:37 36° N 20:42:37 36° N 20:45:20 10° N
SPOT 5 4.1 20:44:25 31° N 20:44:25 31° N 20:46:48 10° N
Cosmos 1603 4.5 20:37:25 10° SW 20:42:52 49° WNW 20:48:20 10° NNE
ERS-1 Rocket 3.6 20:48:38 52° N 20:48:38 52° N 20:52:26 10° NNW
CZ-2C R/B 4.4 20:45:18 10° N 20:49:42 29° WNW 20:54:04 10° WSW
Cosmos 1656 Rocket 4.3 20:57:15 10° NW 21:02:03 51° W 21:02:03 51° W
Aureole 1 Rocket 4.4 21:01:50 47° SW 21:04:19 75° WNW 21:10:57 10° NNE
COSMOS 2455 3.5 21:10:32 10° NNW 21:15:09 50° N 21:15:09 50° N
Cosmos 2369 Rocket 4.3 21:20:59 10° WNW 21:24:36 18° W 21:25:03 17° WSW
Terra 3.7 21:32:45 27° NNW 21:32:45 27° NNW 21:35:01 10° NNW
NOSS 3-4 (A) 4.0 21:23:59 10° NW 21:30:09 65° W 21:30:09 65° W
NOSS 3-4 (C) 4.0 21:24:05 10° NW 21:30:14 66° W 21:30:14 66° W
ATLAS 2AS CENTAUR R/B 3.8 21:56:30 10° NW 22:01:48 37° W 22:01:48 37° W
Mayak 2.0 22:15:28 10° N 22:15:31 10° N 22:15:31 10° N
Cosmos 1980 Rocket 4.2 22:33:01 10° N 22:35:28 23° N 22:35:28 23° N
CZ-4C R/B 3.9 22:32:35 10° NNW 22:38:44 37° NNE 22:38:44 37° NNE
SL-16 R/B 4.0 23:52:44 31° NE 23:52:44 31° NE 23:57:04 10° N
